Regional Weather Roundup
Issued by NWS Raleigh/Durham, NC

Home | Current Version | Previous Version | Text Only | Print | Product List | Glossary On
Versions: 1 2 3 4 5 6 7 8 9 10 11 12 13 14 15 16 17 18 19 20 21 22 23 24 25 26 27 28 29 30 31 32 33 34 35 36 37 38 39 40 41 42 43 44 45 46 47 48 49 50
000
ASUS42 KRAH 211810
RWRRAH
NORTH CAROLINA WEATHER ROUNDUP
NATIONAL WEATHER SERVICE RALEIGH NC
200 PM EDT SUN SEP 21 2014

NOTE: "FAIR" INDICATES FEW OR NO CLOUDS BELOW 12,000 FEET WITH NO
SIGNIFICANT WEATHER AND/OR OBSTRUCTIONS TO VISIBILITY.

NCZ001-053-055-056-065-067-211900-
WESTERN NORTH CAROLINA

CITY           SKY/WX    TMP DP  RH WIND       PRES   REMARKS
ASHEVILLE      MOSUNNY   78  60  53 W7        29.98F
JEFFERSON      MOSUNNY   73  56  56 W22G33    29.97F
MORGANTON      SUNNY     83  62  48 SW8       29.95F
HICKORY        MOSUNNY   83  63  50 W9        29.90F
RUTHERFORDTON  NOT AVBL
MOUNT AIRY     MOSUNNY   83  64  52 W7        29.88F
BOONE          MOSUNNY   73  57  57 W25G32    30.00F
$$

NCZ021-022-025-041-071-084-088-211900-
CENTRAL NORTH CAROLINA

CITY           SKY/WX    TMP DP  RH WIND       PRES   REMARKS
CHARLOTTE      NOT AVBL
GREENSBORO     MOSUNNY   83  63  50 W9G22     29.86F
WINSTON-SALEM  PTSUNNY   84  61  45 W12G18    29.88F
RALEIGH-DURHAM MOSUNNY   85  61  44 NW6       29.83F
FORT BRAGG     SUNNY     85  61  45 W9G17     29.84F
FAYETTEVILLE   SUNNY     86  61  42 W10       29.84F
BURLINGTON     SUNNY     86  61  42 W9G18     29.84F
LAURINBURG     SUNNY     83  62  49 VRB6G16   29.87F
$$

NCZ011-015-027-028-043-044-047-080-103-211900-
NORTHEASTERN NORTH CAROLINA

CITY           SKY/WX    TMP DP  RH WIND       PRES   REMARKS
ROCKY MT-WILSO MOSUNNY   82  62  50 W6        29.81F
GREENVILLE     MOSUNNY   81  64  57 NW6       29.83F
WASHINGTON     MOSUNNY   75  65  70 W7        29.80F
ELIZABETH CITY PTSUNNY   79  68  69 NW16      29.75F
MANTEO         MOSUNNY   76  69  80 N13G20    29.74S
CAPE HATTERAS  PTSUNNY   76  72  87 VRB6      29.74F
$$

NCZ078-087-090-091-093-098-101-211900-
SOUTHEASTERN NORTH CAROLINA

CITY           SKY/WX    TMP DP  RH WIND       PRES   REMARKS
LUMBERTON      SUNNY     84  62  47 NW12      29.86F
GOLDSBORO      SUNNY     83  64  53 W12G17    29.81F
KINSTON        SUNNY     82  61  47 NW12      29.83F
KENANSVILLE    MOSUNNY   83  60  46 W9        29.85F
NEW BERN       MOSUNNY   82  64  54 NW9G21    29.81F
CHERRY POINT   MOSUNNY   82  68  62 N12       29.81F
BEAUFORT       MOSUNNY   81  70  69 NW14      29.79F
JACKSONVILLE   MOSUNNY   80  62  54 NW12      29.82F
WILMINGTON     SUNNY     83  61  47 NW12      29.84F
$$




USA.gov is the U.S. government's official web portal to all federal, state and local government web resources and services.